Location: ??????????
(48.4699°N, 37.9573°E)
Time: 13:29:11
(UTC+00:00)

H-2A R/B - Pass Details

Date: 20 January 2021
Orbit: 734 x 836 km, 98.2° (Epoch: 26 February)

Event Time Altitude Azimuth Distance (km) Brightness Sun altitude
Rises 16:29:22 0° 176° (S) 3,167 5.2 -23.0°
Reaches altitude 10° 16:31:40 10° 180° (S) 2,257 4.5 -23.4°
Maximum altitude 16:36:33 58° 259° (W) 881 2.5 -24.2°
Drops below altitude 10° 16:41:37 10° 339° (NNW) 2,330 4.7 -25.0°
Sets 16:44:01 0° 344° (NNW) 3,279 5.4 -25.4°
